Weather History for Key West NAF, FL

Change the Weather History Date:

Saturday, October 13, 2012

  Actual Average Record
Temperature  
Mean Temperature 82 °F -  
Max Temperature 86 °F 84 °F 91 °F (1960)
Min Temperature 78 °F 75 °F 70 °F (1977)
Cooling Degree Days 17    
Growing Degree Days 32 (Base 50)    
Moisture  
Dew Point 68 °F    
Average Humidity 65    
Maximum Humidity 74    
Minimum Humidity 53    
Precipitation  
Precipitation 0.00 in - - ()
Sea Level Pressure  
Sea Level Pressure 30.04 in    
Wind  
Wind Speed 14 mph (NE)    
Max Wind Speed 18 mph    
Max Gust Speed 26 mph    
Visibility 10 miles    
Events      
Averages and records for this station are not official NWS values.
T = Trace of Precipitation, MM = Missing Value Source: NWS Daily Summary

Daily Weather History Graph

Daily Weather History Graph

Search for Another Location

Airport:

Trip Planner

Search our weather history database for the weather conditions in past years. The results will help you decide how hot, cold, wet, or windy it might be!

Date:

Astronomy

Oct. 13, 2012 Rise Set
Actual Time 7:23 AM EDT 7:01 PM EDT
Civil Twilight 7:01 AM EDT 7:24 PM EDT
Nautical Twilight 6:34 AM EDT 7:50 PM EDT
Astronomical Twilight 6:08 AM EDT 8:17 PM EDT
Moon 5:22 AM EDT (10/13) 5:38 PM EDT (10/13)
Length of Visible Light 12h 23m
Length of Day
11h 37m
Waning Crescent, 5% of the Moon is Illuminated
Oct 13
Waning Crescent
Oct 15
New
Oct 21
First Quarter
Oct 29
Full
Nov 6
Last Quarter

Hourly Weather History & Observations

Time (EDT) Temp. Heat Index Dew Point Humidity Pressure Visibility Wind Dir Wind Speed Gust Speed Precip Events Conditions
12:53 AM 79.0 °F - 64.0 °F 60% 30.08 in 10.0 mi NNE 15.0 mph 21.9 mph N/A   Clear
1:53 AM 79.0 °F - 66.0 °F 64% 30.07 in 10.0 mi NNE 11.5 mph 20.7 mph N/A   Clear
2:53 AM 79.0 °F - 66.0 °F 64% 30.05 in 10.0 mi NNE 15.0 mph 20.7 mph N/A   Clear
3:53 AM 78.1 °F - 66.9 °F 68% 30.03 in 10.0 mi NNE 13.8 mph 20.7 mph N/A   Clear
4:53 AM 78.1 °F - 66.9 °F 68% 30.03 in 10.0 mi NNE 15.0 mph 23.0 mph N/A   Clear
5:53 AM 78.1 °F - 66.9 °F 68% 30.04 in 10.0 mi NE 15.0 mph 23.0 mph N/A   Clear
6:53 AM 78.1 °F - 66.9 °F 68% 30.05 in 10.0 mi NNE 16.1 mph 23.0 mph N/A   Clear
7:53 AM 79.0 °F - 68.0 °F 69% 30.06 in 10.0 mi NNE 16.1 mph 23.0 mph N/A   Clear
8:53 AM 80.1 °F 82.7 °F 68.0 °F 67% 30.07 in 10.0 mi NNE 15.0 mph 25.3 mph N/A   Partly Cloudy
9:53 AM 82.0 °F 85.5 °F 69.1 °F 65% 30.08 in 10.0 mi NE 17.3 mph 26.5 mph N/A   Partly Cloudy
10:53 AM 81.0 °F 84.4 °F 70.0 °F 69% 30.09 in 10.0 mi NE 16.1 mph 25.3 mph N/A   Mostly Cloudy
11:53 AM 82.9 °F 87.0 °F 70.0 °F 65% 30.08 in 10.0 mi NE 16.1 mph 24.2 mph N/A   Mostly Cloudy
12:53 PM 82.0 °F 86.3 °F 71.1 °F 69% 30.06 in 10.0 mi NE 15.0 mph 20.7 mph N/A   Mostly Cloudy
1:12 PM 80.6 °F 84.6 °F 71.6 °F 74% 30.05 in 10.0 mi NE 10.4 mph 20.7 mph N/A   Mostly Cloudy
1:24 PM 82.4 °F 87.2 °F 71.6 °F 70% 30.04 in 10.0 mi NE 11.5 mph - N/A   Mostly Cloudy
1:53 PM 84.0 °F 89.0 °F 71.1 °F 65% 30.03 in 10.0 mi NE 15.0 mph 19.6 mph N/A   Scattered Clouds
2:53 PM 84.0 °F 89.0 °F 71.1 °F 65% 30.00 in 10.0 mi NE 12.7 mph 20.7 mph N/A   Mostly Cloudy
3:53 PM 86.0 °F 88.8 °F 66.9 °F 53% 29.99 in 10.0 mi ENE 16.1 mph 26.5 mph N/A   Scattered Clouds
4:53 PM 84.9 °F 87.6 °F 66.9 °F 55% 29.99 in 10.0 mi ENE 18.4 mph 26.5 mph N/A   Scattered Clouds
5:53 PM 84.0 °F 87.0 °F 68.0 °F 58% 29.99 in 10.0 mi ENE 16.1 mph 25.3 mph N/A   Scattered Clouds
6:53 PM 82.0 °F 84.5 °F 66.9 °F 60% 30.00 in 10.0 mi ENE 15.0 mph 24.2 mph N/A   Scattered Clouds
7:53 PM 81.0 °F 83.8 °F 68.0 °F 65% 30.01 in 10.0 mi ENE 9.2 mph 20.7 mph N/A   Scattered Clouds
8:53 PM 81.0 °F 83.8 °F 68.0 °F 65% 30.03 in 10.0 mi NE 11.5 mph 18.4 mph N/A   Partly Cloudy
9:53 PM 82.0 °F 84.9 °F 68.0 °F 62% 30.04 in 10.0 mi ENE 12.7 mph 20.7 mph N/A   Scattered Clouds
10:53 PM 81.0 °F 84.1 °F 69.1 °F 67% 30.03 in 10.0 mi NE 11.5 mph 20.7 mph N/A   Partly Cloudy
11:53 PM 80.1 °F 82.9 °F 69.1 °F 69% 30.02 in 10.0 mi NE 12.7 mph 20.7 mph N/A   Mostly Cloudy